Time,TemperatureF,DewpointF,PressureIn,WindDirection,WindDirectionDegrees,WindSpeedMPH,WindSpeedGustMPH,Humidity,HourlyPrecipIn,Conditions,Clouds,dailyrainin,SoftwareType,DateUTC
2013-01-04 00:10:00,27.7,26.5,29.92,WNW,295,3.0,4.0,95,0.00,,,0.00,Wunderground v.1.15,2013-01-04 05:10:00,
2013-01-04 00:12:00,27.7,26.5,29.92,WSW,252,3.0,4.0,95,0.00,,,0.00,Wunderground v.1.15,2013-01-04 05:12:00,
2013-01-04 00:16:00,27.7,26.5,29.92,WNW,283,3.0,4.0,95,0.00,,,0.00,Wunderground v.1.15,2013-01-04 05:16:00,
2013-01-04 00:22:00,27.7,26.5,29.92,WSW,255,2.0,3.0,95,0.00,,,0.00,Wunderground v.1.15,2013-01-04 05:22:00,
2013-01-04 00:28:00,27.7,26.5,29.92,WNW,291,3.0,3.0,95,0.00,,,0.00,Wunderground v.1.15,2013-01-04 05:28:00,
2013-01-04 00:34:00,27.8,26.6,29.92,WNW,293,3.0,5.0,95,0.00,,,0.00,Wunderground v.1.15,2013-01-04 05:34:00,
2013-01-04 00:40:00,27.9,26.4,29.92,NW,305,4.0,7.0,94,0.00,,,0.00,Wunderground v.1.15,2013-01-04 05:40:00,
2013-01-04 00:46:00,28.1,26.3,29.92,WNW,284,5.0,8.0,93,0.00,,,0.00,Wunderground v.1.15,2013-01-04 05:46:00,
2013-01-04 00:52:00,28.2,26.4,29.92,WNW,292,5.0,7.0,93,0.00,,,0.00,Wunderground v.1.15,2013-01-04 05:52:00,
2013-01-04 00:58:00,28.2,26.2,29.92,WNW,288,5.0,7.0,92,0.00,,,0.00,Wunderground v.1.15,2013-01-04 05:58:00,
2013-01-04 01:04:00,28.3,26.0,29.92,WNW,296,6.0,7.0,91,0.00,,,0.00,Wunderground v.1.15,2013-01-04 06:04:00,
2013-01-04 01:10:00,28.3,26.0,29.92,West,269,6.0,6.0,91,0.00,,,0.00,Wunderground v.1.15,2013-01-04 06:10:00,
2013-01-04 01:16:00,28.3,26.0,29.92,West,275,5.0,6.0,91,0.00,,,0.00,Wunderground v.1.15,2013-01-04 06:16:00,
2013-01-04 01:22:00,28.4,25.8,29.92,WNW,290,6.0,6.0,90,0.00,,,0.00,Wunderground v.1.15,2013-01-04 06:22:00,
2013-01-04 01:28:00,28.4,25.6,29.92,WNW,288,6.0,7.0,89,0.00,,,0.00,Wunderground v.1.15,2013-01-04 06:28:00,
2013-01-04 01:34:00,28.5,25.7,29.92,WNW,289,6.0,10.0,89,0.00,,,0.00,Wunderground v.1.15,2013-01-04 06:34:00,
2013-01-04 01:40:00,28.5,25.7,29.92,WNW,290,6.0,6.0,89,0.00,,,0.00,Wunderground v.1.15,2013-01-04 06:40:00,
2013-01-04 01:46:00,28.5,25.4,29.92,WNW,284,6.0,10.0,88,0.00,,,0.00,Wunderground v.1.15,2013-01-04 06:46:00,
2013-01-04 01:52:00,28.6,25.5,29.92,NW,305,7.0,10.0,88,0.00,,,0.00,Wunderground v.1.15,2013-01-04 06:52:00,
2013-01-04 01:58:00,28.6,25.5,29.92,WNW,292,6.0,10.0,88,0.00,,,0.00,Wunderground v.1.15,2013-01-04 06:58:00,
2013-01-04 02:04:00,28.5,25.4,29.93,West,279,6.0,6.0,88,0.00,,,0.00,Wunderground v.1.15,2013-01-04 07:04:00,
2013-01-04 02:10:00,28.5,25.4,29.92,West,271,6.0,9.0,88,0.00,,,0.00,Wunderground v.1.15,2013-01-04 07:10:00,
2013-01-04 02:16:00,28.6,25.5,29.92,WNW,298,7.0,9.0,88,0.00,,,0.00,Wunderground v.1.15,2013-01-04 07:16:00,
2013-01-04 02:22:00,28.5,25.1,29.93,WNW,288,7.0,7.0,87,0.00,,,0.00,Wunderground v.1.15,2013-01-04 07:22:00,
2013-01-04 02:28:00,28.5,25.1,29.93,WNW,284,6.0,7.0,87,0.00,,,0.00,Wunderground v.1.15,2013-01-04 07:28:00,
2013-01-04 02:34:00,28.4,25.0,29.93,WNW,288,6.0,11.0,87,0.00,,,0.00,Wunderground v.1.15,2013-01-04 07:34:00,
2013-01-04 02:40:00,28.5,24.8,29.93,West,278,6.0,11.0,86,0.00,,,0.00,Wunderground v.1.15,2013-01-04 07:40:00,
2013-01-04 02:48:00,28.5,24.8,29.93,West,281,7.0,11.0,86,0.00,,,0.00,Wunderground v.1.15,2013-01-04 07:48:00,
2013-01-04 02:54:00,28.5,24.8,29.93,WNW,302,7.0,11.0,86,0.00,,,0.00,Wunderground v.1.15,2013-01-04 07:54:00,
2013-01-04 03:00:00,28.5,24.8,29.92,West,281,6.0,7.0,86,0.00,,,0.00,Wunderground v.1.15,2013-01-04 08:00:00,
2013-01-04 03:06:00,28.6,24.9,29.93,WNW,298,8.0,11.0,86,0.00,,,0.00,Wunderground v.1.15,2013-01-04 08:06:00,
2013-01-04 03:12:00,28.6,24.7,29.93,WNW,295,8.0,9.0,85,0.00,,,0.00,Wunderground v.1.15,2013-01-04 08:12:00,
2013-01-04 03:18:00,28.5,24.8,29.93,West,270,7.0,10.0,86,0.00,,,0.00,Wunderground v.1.15,2013-01-04 08:18:00,
2013-01-04 03:24:00,28.7,24.8,29.93,WNW,301,8.0,10.0,85,0.00,,,0.00,Wunderground v.1.15,2013-01-04 08:24:00,
2013-01-04 03:30:00,28.7,24.8,29.93,NW,310,9.0,9.0,85,0.00,,,0.00,Wunderground v.1.15,2013-01-04 08:30:00,
2013-01-04 03:36:00,28.7,24.8,29.93,WNW,299,9.0,13.0,85,0.00,,,0.00,Wunderground v.1.15,2013-01-04 08:36:00,
2013-01-04 03:42:00,28.7,24.5,29.93,WNW,287,8.0,12.0,84,0.00,,,0.00,Wunderground v.1.15,2013-01-04 08:42:00,
2013-01-04 03:48:00,28.6,24.4,29.93,NW,315,7.0,12.0,84,0.00,,,0.00,Wunderground v.1.15,2013-01-04 08:48:00,
2013-01-04 03:54:00,28.5,24.6,29.93,NW,317,7.0,12.0,85,0.00,,,0.00,Wunderground v.1.15,2013-01-04 08:54:00,
2013-01-04 04:00:00,28.4,24.5,29.92,West,281,6.0,6.0,85,0.00,,,0.00,Wunderground v.1.15,2013-01-04 09:00:00,
2013-01-04 04:06:00,28.3,24.4,29.92,NW,316,5.0,6.0,85,0.00,,,0.00,Wunderground v.1.15,2013-01-04 09:06:00,
2013-01-04 04:12:00,28.2,24.3,29.92,NNW,327,5.0,6.0,85,0.00,,,0.00,Wunderground v.1.15,2013-01-04 09:12:00,
2013-01-04 04:18:00,28.1,24.2,29.92,NW,313,4.0,6.0,85,0.00,,,0.00,Wunderground v.1.15,2013-01-04 09:18:00,
2013-01-04 04:24:00,28.0,24.1,29.92,West,281,4.0,4.0,85,0.00,,,0.00,Wunderground v.1.15,2013-01-04 09:24:00,
2013-01-04 04:30:00,27.9,24.3,29.92,WNW,290,2.0,2.0,86,0.00,,,0.00,Wunderground v.1.15,2013-01-04 09:30:00,
2013-01-04 04:36:00,27.9,24.0,29.91,West,281,2.0,20.0,85,0.00,,,0.00,Wunderground v.1.15,2013-01-04 09:36:00,
2013-01-04 04:42:00,27.9,24.0,29.91,West,277,2.0,20.0,85,0.00,,,0.00,Wunderground v.1.15,2013-01-04 09:42:00,
2013-01-04 04:48:00,27.9,24.0,29.91,West,261,1.0,20.0,85,0.00,,,0.00,Wunderground v.1.15,2013-01-04 09:48:00,
2013-01-04 04:54:00,27.9,24.3,29.90,West,261,1.0,20.0,86,0.00,,,0.00,Wunderground v.1.15,2013-01-04 09:54:00,
2013-01-04 05:02:00,27.8,24.2,29.90,West,281,1.0,1.0,86,0.00,,,0.00,Wunderground v.1.15,2013-01-04 10:02:00,
2013-01-04 05:08:00,27.8,24.2,29.90,West,264,1.0,2.0,86,0.00,,,0.00,Wunderground v.1.15,2013-01-04 10:08:00,
2013-01-04 05:14:00,27.8,24.2,29.90,WSW,246,1.0,2.0,86,0.00,,,0.00,Wunderground v.1.15,2013-01-04 10:14:00,
2013-01-04 05:20:00,28.0,24.6,29.90,WSW,249,1.0,2.0,87,0.00,,,0.00,Wunderground v.1.15,2013-01-04 10:20:00,
2013-01-04 05:26:00,28.4,25.0,29.90,West,268,2.0,2.0,87,0.00,,,0.00,Wunderground v.1.15,2013-01-04 10:26:00,
2013-01-04 05:32:00,28.7,25.3,29.90,West,281,2.0,6.0,87,0.00,,,0.00,Wunderground v.1.15,2013-01-04 10:32:00,
2013-01-04 05:38:00,28.9,25.5,29.89,West,265,2.0,6.0,87,0.00,,,0.00,Wunderground v.1.15,2013-01-04 10:38:00,
2013-01-04 05:44:00,28.9,25.5,29.89,SW,235,2.0,6.0,87,0.00,,,0.00,Wunderground v.1.15,2013-01-04 10:44:00,
2013-01-04 05:50:00,29.1,25.7,29.89,West,267,2.0,2.0,87,0.00,,,0.00,Wunderground v.1.15,2013-01-04 10:50:00,
2013-01-04 05:56:00,29.3,25.9,29.89,SW,235,3.0,6.0,87,0.00,,,0.00,Wunderground v.1.15,2013-01-04 10:56:00,
2013-01-04 06:02:00,29.4,25.7,29.89,WSW,240,2.0,3.0,86,0.00,,,0.00,Wunderground v.1.15,2013-01-04 11:02:00,
2013-01-04 06:08:00,29.3,25.6,29.89,West,259,2.0,3.0,86,0.00,,,0.00,Wunderground v.1.15,2013-01-04 11:08:00,
2013-01-04 06:14:00,29.4,25.7,29.89,WSW,252,2.0,5.0,86,0.00,,,0.00,Wunderground v.1.15,2013-01-04 11:14:00,
2013-01-04 06:20:00,29.5,25.8,29.90,WNW,293,2.0,3.0,86,0.00,,,0.00,Wunderground v.1.15,2013-01-04 11:20:00,
2013-01-04 06:26:00,29.6,25.9,29.90,WSW,254,3.0,4.0,86,0.00,,,0.00,Wunderground v.1.15,2013-01-04 11:26:00,
2013-01-04 06:32:00,29.7,26.0,29.90,West,272,3.0,5.0,86,0.00,,,0.00,Wunderground v.1.15,2013-01-04 11:32:00,
2013-01-04 06:38:00,29.8,26.1,29.89,West,270,3.0,5.0,86,0.00,,,0.00,Wunderground v.1.15,2013-01-04 11:38:00,
2013-01-04 06:44:00,29.9,25.9,29.89,SW,232,3.0,6.0,85,0.00,,,0.00,Wunderground v.1.15,2013-01-04 11:44:00,
2013-01-04 06:50:00,29.9,25.9,29.90,WSW,255,4.0,6.0,85,0.00,,,0.00,Wunderground v.1.15,2013-01-04 11:50:00,
2013-01-04 06:56:00,30.0,26.0,29.90,West,265,5.0,7.0,85,0.00,,,0.00,Wunderground v.1.15,2013-01-04 11:56:00,
2013-01-04 07:02:00,30.2,25.9,29.90,West,280,6.0,9.0,84,0.00,,,0.00,Wunderground v.1.15,2013-01-04 12:02:00,
2013-01-04 07:08:00,30.3,25.8,29.90,WNW,296,6.0,9.0,83,0.00,,,0.00,Wunderground v.1.15,2013-01-04 12:08:00,
2013-01-04 07:14:00,30.3,25.8,29.90,WSW,257,6.0,6.0,83,0.00,,,0.00,Wunderground v.1.15,2013-01-04 12:14:00,
2013-01-04 07:20:00,30.3,25.8,29.89,West,260,6.0,6.0,83,0.00,,,0.00,Wunderground v.1.15,2013-01-04 12:20:00,
2013-01-04 07:26:00,30.3,25.8,29.89,West,260,6.0,6.0,83,0.00,,,0.00,Wunderground v.1.15,2013-01-04 12:26:00,
2013-01-04 07:32:00,30.3,25.8,29.90,West,277,6.0,8.0,83,0.00,,,0.00,Wunderground v.1.15,2013-01-04 12:32:00,
2013-01-04 07:38:00,30.3,26.0,29.90,WSW,256,6.0,8.0,84,0.00,,,0.00,Wunderground v.1.15,2013-01-04 12:38:00,
2013-01-04 07:44:00,30.3,26.0,29.89,West,271,5.0,11.0,84,0.00,,,0.00,Wunderground v.1.15,2013-01-04 12:44:00,
2013-01-04 07:50:00,30.3,25.8,29.90,West,275,5.0,7.0,83,0.00,,,0.00,Wunderground v.1.15,2013-01-04 12:50:00,
2013-01-04 07:56:00,30.3,25.8,29.89,WSW,239,6.0,7.0,83,0.00,,,0.00,Wunderground v.1.15,2013-01-04 12:56:00,
2013-01-04 08:02:00,30.2,25.7,29.90,West,271,6.0,6.0,83,0.00,,,0.00,Wunderground v.1.15,2013-01-04 13:02:00,
2013-01-04 08:08:00,30.2,25.7,29.90,SW,220,5.0,7.0,83,0.00,,,0.00,Wunderground v.1.15,2013-01-04 13:08:00,
2013-01-04 08:14:00,30.2,25.7,29.90,West,269,5.0,7.0,83,0.00,,,0.00,Wunderground v.1.15,2013-01-04 13:14:00,
2013-01-04 08:20:00,30.2,25.7,29.90,WSW,254,6.0,6.0,83,0.00,,,0.00,Wunderground v.1.15,2013-01-04 13:20:00,
2013-01-04 08:26:00,30.2,25.4,29.89,WSW,244,6.0,12.0,82,0.00,,,0.00,Wunderground v.1.15,2013-01-04 13:26:00,
2013-01-04 08:32:00,30.2,25.7,29.89,WSW,242,7.0,10.0,83,0.00,,,0.00,Wunderground v.1.15,2013-01-04 13:32:00,
2013-01-04 08:38:00,30.2,25.4,29.89,WNW,302,7.0,15.0,82,0.00,,,0.00,Wunderground v.1.15,2013-01-04 13:38:00,
2013-01-04 08:44:00,30.1,25.3,29.89,SW,222,7.0,18.0,82,0.00,,,0.00,Wunderground v.1.15,2013-01-04 13:44:00,
2013-01-04 08:50:00,29.9,25.7,29.90,WNW,290,8.0,15.0,84,0.00,,,0.00,Wunderground v.1.15,2013-01-04 13:50:00,
2013-01-04 08:56:00,29.9,25.7,29.89,SW,219,8.0,15.0,84,0.00,,,0.00,Wunderground v.1.15,2013-01-04 13:56:00,
2013-01-04 09:02:00,29.9,25.7,29.89,West,279,6.0,9.0,84,0.00,,,0.00,Wunderground v.1.15,2013-01-04 14:02:00,
2013-01-04 09:08:00,30.0,25.5,29.89,WSW,248,7.0,9.0,83,0.00,,,0.00,Wunderground v.1.15,2013-01-04 14:08:00,
2013-01-04 09:14:00,30.1,25.8,29.90,West,281,6.0,7.0,84,0.00,,,0.00,Wunderground v.1.15,2013-01-04 14:14:00,
2013-01-04 09:20:00,30.1,25.6,29.89,WSW,254,7.0,7.0,83,0.00,,,0.00,Wunderground v.1.15,2013-01-04 14:20:00,
2013-01-04 09:26:00,30.1,25.8,29.90,West,265,8.0,8.0,84,0.00,,,0.00,Wunderground v.1.15,2013-01-04 14:26:00,
2013-01-04 09:32:00,30.1,25.6,29.90,SW,233,7.0,21.0,83,0.00,,,0.00,Wunderground v.1.15,2013-01-04 14:32:00,
2013-01-04 09:38:00,30.3,25.5,29.90,WNW,292,9.0,21.0,82,0.00,,,0.00,Wunderground v.1.15,2013-01-04 14:38:00,
2013-01-04 09:44:00,30.3,25.5,29.90,West,269,6.0,21.0,82,0.00,,,0.00,Wunderground v.1.15,2013-01-04 14:44:00,
2013-01-04 09:50:00,30.3,25.2,29.90,WNW,298,6.0,21.0,81,0.00,,,0.00,Wunderground v.1.15,2013-01-04 14:50:00,
2013-01-04 09:56:00,30.5,25.1,29.89,WNW,287,7.0,21.0,80,0.00,,,0.00,Wunderground v.1.15,2013-01-04 14:56:00,
2013-01-04 10:02:00,30.5,24.8,29.89,West,261,8.0,9.0,79,0.00,,,0.00,Wunderground v.1.15,2013-01-04 15:02:00,
2013-01-04 10:08:00,30.7,25.3,29.89,West,270,7.0,9.0,80,0.00,,,0.00,Wunderground v.1.15,2013-01-04 15:08:00,
2013-01-04 10:14:00,30.9,25.2,29.89,WSW,249,6.0,11.0,79,0.00,,,0.00,Wunderground v.1.15,2013-01-04 15:14:00,
2013-01-04 10:20:00,30.9,25.2,29.89,SW,227,6.0,9.0,79,0.00,,,0.00,Wunderground v.1.15,2013-01-04 15:20:00,
2013-01-04 10:26:00,31.0,24.9,29.88,SW,219,7.0,12.0,78,0.00,,,0.00,Wunderground v.1.15,2013-01-04 15:26:00,
2013-01-04 10:34:00,31.0,24.9,29.88,SW,234,7.0,20.0,78,0.00,,,0.00,Wunderground v.1.15,2013-01-04 15:34:00,
2013-01-04 10:40:00,30.9,24.5,29.87,SW,227,7.0,7.0,77,0.00,,,0.00,Wunderground v.1.15,2013-01-04 15:40:00,
2013-01-04 10:46:00,30.7,25.0,29.87,WSW,246,8.0,20.0,79,0.00,,,0.00,Wunderground v.1.15,2013-01-04 15:46:00,
2013-01-04 10:52:00,30.6,24.9,29.87,WSW,245,9.0,20.0,79,0.00,,,0.00,Wunderground v.1.15,2013-01-04 15:52:00,
2013-01-04 10:58:00,30.6,24.9,29.87,WSW,248,7.0,20.0,79,0.00,,,0.00,Wunderground v.1.15,2013-01-04 15:58:00,
2013-01-04 11:10:00,30.8,24.4,29.85,West,269,6.0,6.0,77,0.00,,,0.00,Wunderground v.1.15,2013-01-04 16:10:00,
2013-01-04 11:16:00,31.0,24.6,29.85,WSW,244,7.0,9.0,77,0.00,,,0.00,Wunderground v.1.15,2013-01-04 16:16:00,
2013-01-04 11:22:00,31.4,25.0,29.85,SW,227,7.0,8.0,77,0.00,,,0.00,Wunderground v.1.15,2013-01-04 16:22:00,
2013-01-04 11:28:00,31.6,24.9,29.85,SW,228,7.0,14.0,76,0.00,,,0.00,Wunderground v.1.15,2013-01-04 16:28:00,
2013-01-04 11:34:00,31.7,25.0,29.85,WNW,286,7.0,21.0,76,0.00,,,0.00,Wunderground v.1.15,2013-01-04 16:34:00,
2013-01-04 11:40:00,31.5,24.5,29.85,WSW,246,7.0,7.0,75,0.00,,,0.00,Wunderground v.1.15,2013-01-04 16:40:00,
2013-01-04 11:46:00,31.2,24.2,29.84,SW,228,9.0,21.0,75,0.00,,,0.00,Wunderground v.1.15,2013-01-04 16:46:00,
2013-01-04 11:52:00,31.5,24.8,29.84,SW,221,8.0,21.0,76,0.00,,,0.00,Wunderground v.1.15,2013-01-04 16:52:00,
2013-01-04 11:58:00,31.5,24.5,29.84,West,279,7.0,21.0,75,0.00,,,0.00,Wunderground v.1.15,2013-01-04 16:58:00,
2013-01-04 12:04:00,31.4,24.4,29.83,West,272,7.0,10.0,75,0.00,,,0.00,Wunderground v.1.15,2013-01-04 17:04:00,
2013-01-04 12:10:00,31.2,24.2,29.83,West,268,6.0,6.0,75,0.00,,,0.00,Wunderground v.1.15,2013-01-04 17:10:00,
2013-01-04 12:16:00,31.3,24.3,29.83,WSW,255,6.0,14.0,75,0.00,,,0.00,Wunderground v.1.15,2013-01-04 17:16:00,
2013-01-04 12:22:00,31.3,24.3,29.83,WNW,292,7.0,9.0,75,0.00,,,0.00,Wunderground v.1.15,2013-01-04 17:22:00,
2013-01-04 12:28:00,31.5,24.5,29.83,WSW,254,6.0,9.0,75,0.00,,,0.00,Wunderground v.1.15,2013-01-04 17:28:00,
2013-01-04 12:34:00,31.4,24.4,29.82,West,266,6.0,23.0,75,0.00,,,0.00,Wunderground v.1.15,2013-01-04 17:34:00,
2013-01-04 12:40:00,31.4,24.1,29.82,WNW,288,6.0,23.0,74,0.00,,,0.00,Wunderground v.1.15,2013-01-04 17:40:00,
2013-01-04 12:46:00,31.4,24.1,29.82,West,267,7.0,23.0,74,0.00,,,0.00,Wunderground v.1.15,2013-01-04 17:46:00,
2013-01-04 12:52:00,31.3,24.0,29.82,West,260,6.0,23.0,74,0.00,,,0.00,Wunderground v.1.15,2013-01-04 17:52:00,
2013-01-04 12:58:00,31.4,24.1,29.82,West,259,6.0,23.0,74,0.00,,,0.00,Wunderground v.1.15,2013-01-04 17:58:00,
2013-01-04 13:04:00,31.5,24.2,29.82,WSW,246,5.0,8.0,74,0.00,,,0.00,Wunderground v.1.15,2013-01-04 18:04:00,
2013-01-04 13:10:00,31.5,24.2,29.82,West,278,6.0,6.0,74,0.00,,,0.00,Wunderground v.1.15,2013-01-04 18:10:00,
2013-01-04 13:16:00,31.4,23.7,29.82,WSW,244,5.0,6.0,73,0.00,,,0.00,Wunderground v.1.15,2013-01-04 18:16:00,
2013-01-04 13:22:00,31.4,23.7,29.81,West,276,5.0,7.0,73,0.00,,,0.00,Wunderground v.1.15,2013-01-04 18:22:00,
2013-01-04 13:28:00,31.5,23.8,29.81,WSW,244,6.0,7.0,73,0.00,,,0.00,Wunderground v.1.15,2013-01-04 18:28:00,
2013-01-04 13:34:00,31.5,23.8,29.81,WSW,248,6.0,13.0,73,0.00,,,0.00,Wunderground v.1.15,2013-01-04 18:34:00,
2013-01-04 13:40:00,31.6,23.9,29.81,West,277,5.0,13.0,73,0.00,,,0.00,Wunderground v.1.15,2013-01-04 18:40:00,
2013-01-04 13:46:00,31.6,23.6,29.80,WNW,289,4.0,13.0,72,0.00,,,0.00,Wunderground v.1.15,2013-01-04 18:46:00,
2013-01-04 13:52:00,31.6,23.3,29.80,NW,310,7.0,13.0,71,0.00,,,0.00,Wunderground v.1.15,2013-01-04 18:52:00,
2013-01-04 13:58:00,31.6,23.3,29.80,SW,236,7.0,13.0,71,0.00,,,0.00,Wunderground v.1.15,2013-01-04 18:58:00,
2013-01-04 14:04:00,31.7,23.0,29.80,WSW,252,6.0,7.0,70,0.00,,,0.00,Wunderground v.1.15,2013-01-04 19:04:00,
2013-01-04 14:10:00,31.8,23.1,29.80,WSW,238,6.0,6.0,70,0.00,,,0.00,Wunderground v.1.15,2013-01-04 19:10:00,
2013-01-04 14:16:00,31.9,23.2,29.80,SSW,205,5.0,8.0,70,0.00,,,0.00,Wunderground v.1.15,2013-01-04 19:16:00,
2013-01-04 14:22:00,31.9,23.2,29.80,WSW,257,3.0,4.0,70,0.00,,,0.00,Wunderground v.1.15,2013-01-04 19:22:00,
2013-01-04 14:28:00,32.0,23.3,29.80,SW,232,2.0,4.0,70,0.00,,,0.00,Wunderground v.1.15,2013-01-04 19:28:00,
2013-01-04 14:34:00,32.1,23.1,29.80,WSW,249,1.0,11.0,69,0.00,,,0.00,Wunderground v.1.15,2013-01-04 19:34:00,
2013-01-04 14:40:00,32.1,23.1,29.80,SW,234,2.0,2.0,69,0.00,,,0.00,Wunderground v.1.15,2013-01-04 19:40:00,
2013-01-04 14:46:00,32.4,23.4,29.80,West,271,2.0,11.0,69,0.00,,,0.00,Wunderground v.1.15,2013-01-04 19:46:00,
2013-01-04 14:52:00,33.1,24.0,29.80,WSW,238,2.0,4.0,69,0.00,,,0.00,Wunderground v.1.15,2013-01-04 19:52:00,
2013-01-04 14:58:00,33.8,24.0,29.79,West,273,2.0,11.0,67,0.00,,,0.00,Wunderground v.1.15,2013-01-04 19:58:00,
2013-01-04 15:04:00,34.0,23.5,29.79,WSW,252,3.0,4.0,65,0.00,,,0.00,Wunderground v.1.15,2013-01-04 20:04:00,
2013-01-04 15:10:00,33.9,23.4,29.79,West,276,4.0,4.0,65,0.00,,,0.00,Wunderground v.1.15,2013-01-04 20:10:00,
2013-01-04 15:16:00,34.5,23.9,29.78,West,275,3.0,5.0,65,0.00,,,0.00,Wunderground v.1.15,2013-01-04 20:16:00,
2013-01-04 15:22:00,34.6,23.7,29.78,SW,225,4.0,7.0,64,0.00,,,0.00,Wunderground v.1.15,2013-01-04 20:22:00,
2013-01-04 15:28:00,34.7,23.4,29.78,SSW,212,4.0,7.0,63,0.00,,,0.00,Wunderground v.1.15,2013-01-04 20:28:00,
2013-01-04 15:34:00,34.7,23.8,29.78,West,267,4.0,8.0,64,0.00,,,0.00,Wunderground v.1.15,2013-01-04 20:34:00,
2013-01-04 15:40:00,34.6,23.7,29.78,WSW,242,3.0,3.0,64,0.00,,,0.00,Wunderground v.1.15,2013-01-04 20:40:00,
2013-01-04 15:46:00,34.5,23.6,29.78,WSW,243,2.0,8.0,64,0.00,,,0.00,Wunderground v.1.15,2013-01-04 20:46:00,
2013-01-04 15:52:00,34.5,23.6,29.78,SW,231,2.0,8.0,64,0.00,,,0.00,Wunderground v.1.15,2013-01-04 20:52:00,
2013-01-04 15:59:00,34.2,23.3,29.78,WSW,257,2.0,8.0,64,0.00,,,0.00,Wunderground v.1.15,2013-01-04 20:59:00,
2013-01-04 16:04:00,34.2,23.3,29.78,WSW,246,2.0,3.0,64,0.00,,,0.00,Wunderground v.1.15,2013-01-04 21:04:00,
2013-01-04 16:10:00,34.3,23.4,29.78,SW,230,1.0,1.0,64,0.00,,,0.00,Wunderground v.1.15,2013-01-04 21:10:00,
2013-01-04 16:16:00,34.0,23.1,29.78,WSW,249,1.0,4.0,64,0.00,,,0.00,Wunderground v.1.15,2013-01-04 21:16:00,
2013-01-04 16:22:00,33.5,23.0,29.78,West,259,1.0,1.0,65,0.00,,,0.00,Wunderground v.1.15,2013-01-04 21:22:00,
2013-01-04 16:28:00,33.0,22.5,29.78,WNW,291,2.0,3.0,65,0.00,,,0.00,Wunderground v.1.15,2013-01-04 21:28:00,
2013-01-04 16:34:00,32.5,22.4,29.78,WNW,288,3.0,11.0,66,0.00,,,0.00,Wunderground v.1.15,2013-01-04 21:34:00,
2013-01-04 16:40:00,32.3,22.2,29.78,WNW,290,4.0,11.0,66,0.00,,,0.00,Wunderground v.1.15,2013-01-04 21:40:00,
2013-01-04 16:46:00,32.8,22.0,29.78,WNW,295,6.0,11.0,64,0.00,,,0.00,Wunderground v.1.15,2013-01-04 21:46:00,
2013-01-04 16:52:00,32.8,22.0,29.78,NW,304,7.0,11.0,64,0.00,,,0.00,Wunderground v.1.15,2013-01-04 21:52:00,
2013-01-04 16:58:00,32.7,22.2,29.79,WNW,302,6.0,11.0,65,0.00,,,0.00,Wunderground v.1.15,2013-01-04 21:58:00,
2013-01-04 17:04:00,32.5,22.4,29.79,WNW,290,6.0,6.0,66,0.00,,,0.00,Wunderground v.1.15,2013-01-04 22:04:00,
2013-01-04 17:10:00,32.9,22.4,29.80,WNW,290,6.0,6.0,65,0.00,,,0.00,Wunderground v.1.15,2013-01-04 22:10:00,
2013-01-04 17:16:00,32.8,22.3,29.80,WSW,254,5.0,6.0,65,0.00,,,0.00,Wunderground v.1.15,2013-01-04 22:16:00,
2013-01-04 17:22:00,32.6,22.1,29.80,WNW,291,5.0,9.0,65,0.00,,,0.00,Wunderground v.1.15,2013-01-04 22:22:00,
2013-01-04 17:28:00,32.3,22.2,29.81,West,270,5.0,9.0,66,0.00,,,0.00,Wunderground v.1.15,2013-01-04 22:28:00,
2013-01-04 17:34:00,32.0,21.9,29.81,WNW,284,5.0,13.0,66,0.00,,,0.00,Wunderground v.1.15,2013-01-04 22:34:00,
2013-01-04 17:40:00,31.9,21.8,29.81,WSW,246,5.0,13.0,66,0.00,,,0.00,Wunderground v.1.15,2013-01-04 22:40:00,
2013-01-04 17:46:00,31.7,21.6,29.82,WNW,287,5.0,13.0,66,0.00,,,0.00,Wunderground v.1.15,2013-01-04 22:46:00,
2013-01-04 17:52:00,31.6,21.5,29.82,West,279,5.0,13.0,66,0.00,,,0.00,Wunderground v.1.15,2013-01-04 22:52:00,
2013-01-04 17:58:00,31.2,21.5,29.82,WNW,286,4.0,13.0,67,0.00,,,0.00,Wunderground v.1.15,2013-01-04 22:58:00,
2013-01-04 18:04:00,31.5,21.8,29.82,WSW,254,5.0,6.0,67,0.00,,,0.00,Wunderground v.1.15,2013-01-04 23:04:00,
2013-01-04 18:10:00,31.4,21.7,29.83,West,267,5.0,7.0,67,0.00,,,0.00,Wunderground v.1.15,2013-01-04 23:10:00,
2013-01-04 18:16:00,31.2,21.5,29.83,WNW,284,4.0,7.0,67,0.00,,,0.00,Wunderground v.1.15,2013-01-04 23:16:00,
2013-01-04 18:22:00,31.2,21.5,29.83,WNW,299,3.0,5.0,67,0.00,,,0.00,Wunderground v.1.15,2013-01-04 23:22:00,
2013-01-04 18:28:00,30.9,21.2,29.83,West,281,3.0,5.0,67,0.00,,,0.00,Wunderground v.1.15,2013-01-04 23:28:00,
2013-01-04 18:34:00,30.7,21.4,29.83,WNW,283,4.0,9.0,68,0.00,,,0.00,Wunderground v.1.15,2013-01-04 23:34:00,
2013-01-04 18:40:00,30.3,21.3,29.83,WNW,287,4.0,9.0,69,0.00,,,0.00,Wunderground v.1.15,2013-01-04 23:40:00,
2013-01-04 18:46:00,30.3,21.3,29.83,WNW,294,4.0,9.0,69,0.00,,,0.00,Wunderground v.1.15,2013-01-04 23:46:00,
2013-01-04 18:52:00,30.6,21.3,29.83,WNW,284,4.0,9.0,68,0.00,,,0.00,Wunderground v.1.15,2013-01-04 23:52:00,
2013-01-04 18:58:00,31.6,21.5,29.84,NW,308,7.0,12.0,66,0.00,,,0.00,Wunderground v.1.15,2013-01-04 23:58:00,
2013-01-04 19:06:00,31.8,21.4,29.84,NW,306,10.0,13.0,65,0.00,,,0.00,Wunderground v.1.15,2013-01-05 00:06:00,
2013-01-04 19:12:00,31.7,21.3,29.84,WNW,293,10.0,11.0,65,0.00,,,0.00,Wunderground v.1.15,2013-01-05 00:12:00,
2013-01-04 19:18:00,31.6,21.5,29.84,WNW,298,9.0,11.0,66,0.00,,,0.00,Wunderground v.1.15,2013-01-05 00:18:00,
2013-01-04 19:24:00,32.0,21.6,29.84,WNW,285,11.0,16.0,65,0.00,,,0.00,Wunderground v.1.15,2013-01-05 00:24:00,
2013-01-04 19:30:00,31.9,21.5,29.85,NW,313,11.0,15.0,65,0.00,,,0.00,Wunderground v.1.15,2013-01-05 00:30:00,
2013-01-04 19:36:00,31.7,21.6,29.85,WNW,294,9.0,15.0,66,0.00,,,0.00,Wunderground v.1.15,2013-01-05 00:36:00,
2013-01-04 19:42:00,31.6,21.9,29.85,West,263,8.0,10.0,67,0.00,,,0.00,Wunderground v.1.15,2013-01-05 00:42:00,
2013-01-04 19:52:00,31.3,22.0,29.85,NW,312,8.0,11.0,68,0.00,,,0.00,Wunderground v.1.15,2013-01-05 00:52:00,
2013-01-04 19:58:00,31.4,21.7,29.86,WNW,293,10.0,16.0,67,0.00,,,0.00,Wunderground v.1.15,2013-01-05 00:58:00,
2013-01-04 20:04:00,31.5,21.8,29.85,NW,309,13.0,15.0,67,0.00,,,0.00,Wunderground v.1.15,2013-01-05 01:04:00,
2013-01-04 20:10:00,31.5,21.8,29.85,NW,306,14.0,14.0,67,0.00,,,0.00,Wunderground v.1.15,2013-01-05 01:10:00,
2013-01-04 20:16:00,31.4,22.4,29.86,WNW,296,16.0,22.0,69,0.00,,,0.00,Wunderground v.1.15,2013-01-05 01:16:00,
2013-01-04 20:22:00,31.3,22.3,29.86,West,280,15.0,16.0,69,0.00,,,0.00,Wunderground v.1.15,2013-01-05 01:22:00,
2013-01-04 20:28:00,31.3,22.3,29.86,WNW,289,15.0,19.0,69,0.00,,,0.00,Wunderground v.1.15,2013-01-05 01:28:00,
2013-01-04 20:34:00,31.3,22.3,29.86,West,281,14.0,24.0,69,0.00,,,0.00,Wunderground v.1.15,2013-01-05 01:34:00,
2013-01-04 20:40:00,31.1,22.5,29.86,WNW,296,13.0,24.0,70,0.00,,,0.00,Wunderground v.1.15,2013-01-05 01:40:00,
2013-01-04 20:46:00,31.1,22.8,29.86,SW,232,13.0,24.0,71,0.00,,,0.00,Wunderground v.1.15,2013-01-05 01:46:00,
2013-01-04 20:52:00,31.0,22.7,29.86,WNW,295,11.0,24.0,71,0.00,,,0.00,Wunderground v.1.15,2013-01-05 01:52:00,
2013-01-04 20:58:00,31.0,23.0,29.87,WNW,286,13.0,24.0,72,0.00,,,0.00,Wunderground v.1.15,2013-01-05 01:58:00,
2013-01-04 21:04:00,31.0,23.0,29.86,NW,314,14.0,14.0,72,0.00,,,0.00,Wunderground v.1.15,2013-01-05 02:04:00,
2013-01-04 21:10:00,31.0,23.4,29.87,WNW,290,12.0,12.0,73,0.00,,,0.00,Wunderground v.1.15,2013-01-05 02:10:00,
2013-01-04 21:16:00,31.0,23.4,29.87,WNW,284,11.0,14.0,73,0.00,,,0.00,Wunderground v.1.15,2013-01-05 02:16:00,
2013-01-04 21:22:00,31.0,23.7,29.87,West,281,11.0,11.0,74,0.00,,,0.00,Wunderground v.1.15,2013-01-05 02:22:00,
2013-01-04 21:28:00,31.0,23.7,29.87,WNW,294,11.0,14.0,74,0.00,,,0.00,Wunderground v.1.15,2013-01-05 02:28:00,
2013-01-04 21:34:00,31.0,24.0,29.87,WNW,286,11.0,26.0,75,0.00,,,0.00,Wunderground v.1.15,2013-01-05 02:34:00,
2013-01-04 21:40:00,31.0,24.3,29.87,WNW,303,9.0,9.0,76,0.00,,,0.00,Wunderground v.1.15,2013-01-05 02:40:00,
2013-01-04 21:46:00,31.0,24.3,29.87,West,279,10.0,26.0,76,0.00,,,0.00,Wunderground v.1.15,2013-01-05 02:46:00,
2013-01-04 21:52:00,31.0,24.6,29.88,WNW,290,10.0,11.0,77,0.00,,,0.00,Wunderground v.1.15,2013-01-05 02:52:00,
2013-01-04 22:00:00,31.2,25.1,29.88,WNW,283,12.0,12.0,78,0.00,,,0.00,Wunderground v.1.15,2013-01-05 03:00:00,
2013-01-04 22:06:00,31.1,25.3,29.88,NW,320,12.0,14.0,79,0.00,,,0.00,Wunderground v.1.15,2013-01-05 03:06:00,
2013-01-04 22:12:00,31.1,25.3,29.89,West,279,11.0,12.0,79,0.00,,,0.00,Wunderground v.1.15,2013-01-05 03:12:00,
2013-01-04 22:18:00,31.1,25.3,29.89,NW,311,9.0,12.0,79,0.00,,,0.00,Wunderground v.1.15,2013-01-05 03:18:00,
2013-01-04 22:24:00,31.2,25.7,29.89,WNW,298,10.0,16.0,80,0.00,,,0.00,Wunderground v.1.15,2013-01-05 03:24:00,
2013-01-04 22:30:00,31.1,25.7,29.89,NW,319,10.0,11.0,80,0.00,,,0.00,Wunderground v.1.15,2013-01-05 03:30:00,
2013-01-04 22:36:00,31.1,26.0,29.89,NW,304,8.0,22.0,81,0.00,,,0.00,Wunderground v.1.15,2013-01-05 03:36:00,
2013-01-04 22:42:00,31.1,26.0,29.90,NW,306,8.0,22.0,81,0.00,,,0.00,Wunderground v.1.15,2013-01-05 03:42:00,
2013-01-04 22:48:00,31.1,26.2,29.90,WNW,288,7.0,22.0,82,0.00,,,0.00,Wunderground v.1.15,2013-01-05 03:48:00,
2013-01-04 22:54:00,31.0,26.1,29.90,WNW,299,7.0,22.0,82,0.00,,,0.00,Wunderground v.1.15,2013-01-05 03:54:00,
2013-01-04 23:00:00,31.0,26.1,29.90,WNW,290,8.0,8.0,82,0.00,,,0.00,Wunderground v.1.15,2013-01-05 04:00:00,
2013-01-04 23:06:00,31.0,26.1,29.90,WNW,301,8.0,8.0,82,0.00,,,0.00,Wunderground v.1.15,2013-01-05 04:06:00,
2013-01-04 23:12:00,31.0,26.4,29.91,WNW,283,8.0,11.0,83,0.00,,,0.00,Wunderground v.1.15,2013-01-05 04:12:00,
2013-01-04 23:18:00,31.1,26.5,29.91,West,279,8.0,11.0,83,0.00,,,0.00,Wunderground v.1.15,2013-01-05 04:18:00,
2013-01-04 23:24:00,31.0,26.4,29.91,WNW,296,7.0,8.0,83,0.00,,,0.00,Wunderground v.1.15,2013-01-05 04:24:00,
2013-01-04 23:30:00,30.9,26.6,29.91,NW,306,7.0,8.0,84,0.00,,,0.00,Wunderground v.1.15,2013-01-05 04:30:00,
2013-01-04 23:36:00,30.9,26.3,29.91,WNW,287,8.0,21.0,83,0.00,,,0.00,Wunderground v.1.15,2013-01-05 04:36:00,
2013-01-04 23:42:00,30.8,26.2,29.91,West,275,8.0,21.0,83,0.00,,,0.00,Wunderground v.1.15,2013-01-05 04:42:00,
2013-01-04 23:48:00,31.0,26.7,29.91,NW,304,8.0,21.0,84,0.00,,,0.00,Wunderground v.1.15,2013-01-05 04:48:00,
2013-01-04 23:56:00,31.4,27.1,29.91,NW,321,12.0,21.0,84,0.00,,,0.00,Wunderground v.1.15,2013-01-05 04:56:00,